Regional Weather Roundup
Issued by NWS Bismarck, ND

Current Version | Previous Version | Text Only | Print | Product List | Glossary On
Versions: 1 2 3 4 5 6 7 8 9 10 11 12 13 14 15 16 17 18 19 20 21 22 23 24 25 26 27 28 29 30 31 32 33 34 35 36 37 38 39 40 41 42 43 44 45 46 47 48 49 50
000
ASUS43 KBIS 250910
RWRBIS

NWR BROADCAST TEXT
NATIONAL WEATHER SERVICE BISMARCK ND
400 AM CDT WED MAY 25 2016

NOTE: "FAIR" INDICATES FEW OR NO CLOUDS BELOW 12,000 FEET WITH NO
SIGNIFICANT WEATHER AND/OR OBSTRUCTIONS TO VISIBILITY.


CITY           SKY/WX    TMP DP  RH WIND       PRES   REMARKS
WILLISTON      LGT RAIN  56  43  61 N9        29.88S
MINOT          RAIN      59  52  77 S8        29.88R
MINOT AFB      LGT RAIN  57  52  82 SE7       29.87R
BISMARCK       LGT RAIN  59  54  83 NE10      29.85R
DICKINSON      CLOUDY    52  49  89 NE9       29.80F
GARRISON         N/A     58  51  78 NE7       29.84S
HETTINGER ARPT CLOUDY    53  47  79 E9        29.81F
JAMESTOWN      NOT AVBL
BEACH          FAIR      46  46 100 N9        29.86S
CARRINGTON     FAIR      64  50  59 E8        29.85F
HAZEN          CLOUDY    55  52  88 E8        29.87R
LINTON         CLOUDY    57  57 100 SE5         N/A
MANDAN         LGT RAIN  57  55  94 NE8       29.85R
OAKES            N/A    N/A N/A N/A MISG        N/A
RUGBY          FAIR      59  46  63 E10       29.85S
STANLEY        FAIR      54  46  76 NE5       29.89S
WATFORD CITY   LGT RAIN  52  50  93 N3        29.87F
$$

CITY           SKY/WX    TMP DP  RH WIND       PRES   REMARKS
GRAND FORKS    CLOUDY    59  52  77 E7        29.87S
GRAND FORKS AF CLOUDY    60  51  73 SE6       29.87F
DEVILS LAKE    CLOUDY    63  51  65 E10       29.87S
FARGO          CLOUDY    66  50  56 E12       29.84F
CANDO          FAIR      57  48  72 E9        29.89S
CAVALIER       FAIR      54  54 100 CALM      29.90R
GRAFTON        FAIR      57  55  94 E7        29.90S
GWINNER        FAIR      64  55  72 E12       29.82S
LANGDON        FAIR      55  52  88 SE10      29.90S
ROLLA          FAIR      54  46  76 CALM      29.90S
WALHALLA       FAIR      50  50 100 CALM      29.90S
$$

CITY           SKY/WX    TMP DP  RH WIND       PRES   REMARKS
ABERDEEN       LGT RAIN  62  56  80 W16       29.80F
MOBRIDGE       RAIN      60  53  77 SE23G33   29.81R
BUFFALO          N/A     50  47  89 SW9       29.76R
RAPID CITY     PTCLDY    49  47  93 CALM      29.84F
GLASGOW        CLOUDY    44  41  89 N5        29.87S
SIDNEY         LGT RAIN  54  46  74 N12       29.87S
WOLF POINT     LGT RAIN  51  43  74 N3        29.87F
GLENDIVE       CLOUDY    52  45  76 N13       29.86F
MILES CITY     LGT RAIN  51  48  89 CALM      29.87R
BAKER          CLOUDY    52  46  80 N10       29.83R
$$

CITY           SKY/WX    TMP DP  RH WIND       PRES   REMARKS
BILLINGS       PTCLDY    47  43  86 NW8       29.90S
GREAT FALLS    CLEAR     39  36  89 SW8       29.89S
REGINA         CLEAR     43  39  87 E2        29.87F
ESTEVAN          N/A     43  37  81 SE7       29.88R
$$





USA.gov is the U.S. government's official web portal to all federal, state and local government web resources and services.